Weather in Velyka Pysarivka

Ukraine / Sumi District     50°25′25″N   35°28′53″E
temp.,
°C
wind,
m/s
gust,
m/s
humid.,
%
clouds,
%
prec.,
mm/h
press.,
hPa
HPBL,
m
27 october, wed
wed2700:00+2ssw38495 0.0 1029155
03:00+1ssw38496 0.0 1029150
06:000ssw311525 0.0 1027205
09:00+2ssw512540 0.0 1027329
12:00+8sw710510 0.0 1026776
15:00+10sw68523 0.0 10241058
18:00+9wsw5863100 0.0 1023373
21:00+7wsw3674100 0.0 1023137
28 october, thu
thu2800:00+5w348017 0.0 102464
03:00+4w2284100 0.0 102326
06:00+4sw3586100 0.0 102388
09:00+6sw41079100 0.0 1022305
12:00+7sw51378100 0.6 1021432
15:00+10w5107198 0.6 1020697
18:00+9wnw4986100 0.1 1020424
21:00+9nw4108895 0.1 1022476
29 october, fri
fri2900:00+7nw36930 0.0 1023103
03:00+8nnw389126 0.0 1024259
06:00+5n36915 0.0 1026115
09:00+6nne37823 0.0 1028209
12:00+11ene456731 0.0 1028754
15:00+12e345719 0.0 10281034
18:00+8e33720 0.0 103046
21:00+6ese34840 0.0 103173
30 october, sat
sat3000:00+5se34880 0.0 103256
03:00+4se22910 0.0 103228
06:00+4sse22920 0.0 103318
09:00+5se23860 0.0 1034109
12:00+11sse34610 0.0 1033588
15:00+13sse34510 0.0 1032893
18:00+9se34620 0.0 103242
21:00+7se22660 0.0 103326
31 october, sun
sun3100:00+6se22710 0.0 103325
03:00+5se22760 0.0 103316
05:00+4ese22840 0.0 103219
08:00+5ese26790 0.0 1032164
11:00+11se46560 0.0 1031603
14:00+12ese45460 0.0 1028748
17:00+9e34620 0.0 102858
20:00+7ese39710 0.0 1028164